KLM2648 LSZH-LSGG

Flight info

Callsign KLM2648
Flight time 0h 29m
Altitude 18000
Route VEBIT T50 ROTOS Z669 ULMES
Aircraft A321/M-SDE3FGHIRWY/LB1

Departure

Time 2026-05-05 17:24
Airport Zürich Airport (LSZH)

Arrival

Time 2026-05-05 17:54
Airport Geneva International Airport (LSGG)
Time Latitude Longitude Altitude Speed Heading
2026-05-05 17:03 47.46184 8.55435 1406 ft 0 kts 186°
2026-05-05 17:15 47.46200 8.55438 1405 ft 2 kts 186°
2026-05-05 17:15 47.46217 8.55441 1400 ft 2 kts 186°
2026-05-05 17:15 47.46234 8.55444 1403 ft 3 kts 185°
2026-05-05 17:15 47.46251 8.55439 1401 ft 3 kts 128°
2026-05-05 17:16 47.46256 8.55426 1407 ft 0 kts 95°
2026-05-05 17:17 47.46256 8.55427 1407 ft 1 kts 95°
2026-05-05 17:17 47.46254 8.55488 1400 ft 11 kts 94°
2026-05-05 17:17 47.46246 8.55625 1397 ft 12 kts 95°
2026-05-05 17:18 47.46239 8.55722 1398 ft 7 kts 96°
2026-05-05 17:18 47.46233 8.55815 1398 ft 13 kts 96°
2026-05-05 17:18 47.46221 8.55956 1406 ft 12 kts 103°
2026-05-05 17:18 47.46171 8.56046 1405 ft 12 kts 135°
2026-05-05 17:19 47.46102 8.56142 1402 ft 16 kts 136°
2026-05-05 17:19 47.46025 8.56255 1409 ft 12 kts 120°
2026-05-05 17:19 47.46027 8.56296 1408 ft 0 kts 64°
2026-05-05 17:19 47.46027 8.56297 1408 ft 0 kts 61°
2026-05-05 17:20 47.46038 8.56306 1408 ft 0 kts 31°
2026-05-05 17:23 47.46061 8.56326 1403 ft 7 kts 32°
2026-05-05 17:23 47.46116 8.56402 1404 ft 12 kts 42°
2026-05-05 17:23 47.46170 8.56391 1403 ft 8 kts 315°
2026-05-05 17:24 47.46334 8.56166 1398 ft 76 kts 317°
2026-05-05 17:24 47.46929 8.55351 1398 ft 154 kts 317°
2026-05-05 17:24 47.47841 8.54096 1688 ft 196 kts 316°
2026-05-05 17:24 47.48867 8.52710 2643 ft 198 kts 316°
2026-05-05 17:25 47.49965 8.51471 3623 ft 205 kts 325°
2026-05-05 17:25 47.50806 8.50748 3992 ft 215 kts 326°
2026-05-05 17:25 47.52494 8.49062 4734 ft 220 kts 307°
2026-05-05 17:25 47.53291 8.47177 5504 ft 216 kts 285°
2026-05-05 17:26 47.53513 8.45008 6201 ft 214 kts 262°
2026-05-05 17:26 47.53131 8.42897 6936 ft 213 kts 243°
2026-05-05 17:26 47.52489 8.40920 7728 ft 214 kts 242°
2026-05-05 17:26 47.51573 8.39205 8477 ft 216 kts 218°
2026-05-05 17:27 47.50169 8.38207 8919 ft 239 kts 196°
2026-05-05 17:27 47.48463 8.37656 9218 ft 262 kts 195°
2026-05-05 17:27 47.46646 8.37083 9855 ft 271 kts 195°
2026-05-05 17:27 47.44754 8.36482 10293 ft 288 kts 195°
2026-05-05 17:28 47.42719 8.35823 10565 ft 310 kts 195°
2026-05-05 17:28 47.40612 8.34964 11163 ft 317 kts 206°
2026-05-05 17:28 47.38790 8.33169 11917 ft 318 kts 225°
2026-05-05 17:28 47.37500 8.30518 12714 ft 320 kts 241°
2026-05-05 17:29 47.36468 8.27601 13508 ft 322 kts 242°
2026-05-05 17:29 47.35425 8.24659 14179 ft 326 kts 241°
2026-05-05 17:29 47.34366 8.21682 14808 ft 329 kts 241°
2026-05-05 17:29 47.33296 8.18673 15473 ft 333 kts 241°
2026-05-05 17:30 47.32212 8.15631 16112 ft 337 kts 241°
2026-05-05 17:30 47.31131 8.12599 16751 ft 341 kts 241°
2026-05-05 17:30 47.30010 8.09451 17391 ft 344 kts 241°
2026-05-05 17:30 47.28890 8.06304 17802 ft 348 kts 241°
2026-05-05 17:31 47.27786 8.03200 17879 ft 344 kts 241°
2026-05-05 17:31 47.26714 8.00080 17883 ft 340 kts 245°
2026-05-05 17:31 47.25820 7.96860 17885 ft 339 kts 246°
2026-05-05 17:31 47.24926 7.93643 17885 ft 339 kts 246°
2026-05-05 17:32 47.24031 7.90437 17885 ft 339 kts 246°
2026-05-05 17:32 47.23133 7.87230 17885 ft 339 kts 246°
2026-05-05 17:32 47.22232 7.84023 17885 ft 339 kts 246°
2026-05-05 17:32 47.21331 7.80828 17884 ft 339 kts 246°
2026-05-05 17:33 47.20427 7.77625 17881 ft 339 kts 246°
2026-05-05 17:33 47.19522 7.74428 17881 ft 338 kts 245°
2026-05-05 17:33 47.18383 7.71418 17880 ft 337 kts 234°
2026-05-05 17:33 47.16941 7.68706 17879 ft 337 kts 231°
2026-05-05 17:34 47.15481 7.66010 17878 ft 337 kts 231°
2026-05-05 17:34 47.14024 7.63314 17878 ft 337 kts 231°
2026-05-05 17:34 47.12568 7.60616 17880 ft 337 kts 231°
2026-05-05 17:34 47.11111 7.57919 17886 ft 337 kts 231°
2026-05-05 17:35 47.09656 7.55225 17895 ft 337 kts 231°
2026-05-05 17:35 47.08198 7.52528 17897 ft 337 kts 231°
2026-05-05 17:35 47.06737 7.49839 17898 ft 337 kts 231°
2026-05-05 17:35 47.05272 7.47147 17901 ft 337 kts 231°
2026-05-05 17:36 47.03809 7.44461 17902 ft 337 kts 231°
2026-05-05 17:36 47.02346 7.41767 17903 ft 337 kts 231°
2026-05-05 17:36 47.00882 7.39079 17922 ft 338 kts 231°
2026-05-05 17:36 46.99414 7.36395 17921 ft 337 kts 231°
2026-05-05 17:37 46.97946 7.33720 17920 ft 337 kts 231°
2026-05-05 17:37 46.96972 7.31947 17920 ft 337 kts 230°
2026-05-05 17:37 46.95008 7.28375 17918 ft 337 kts 231°
2026-05-05 17:37 46.93543 7.25705 17914 ft 336 kts 231°
2026-05-05 17:38 46.92082 7.23036 17911 ft 336 kts 231°
2026-05-05 17:38 46.90619 7.20372 17915 ft 336 kts 231°
2026-05-05 17:38 46.89157 7.17717 17912 ft 335 kts 231°
2026-05-05 17:38 46.87692 7.15057 17909 ft 335 kts 231°
2026-05-05 17:39 46.86230 7.12402 17906 ft 335 kts 231°
2026-05-05 17:39 46.84769 7.09747 17904 ft 335 kts 231°
2026-05-05 17:39 46.83293 7.07065 17896 ft 342 kts 231°
2026-05-05 17:39 46.81796 7.04351 17847 ft 343 kts 231°
2026-05-05 17:40 46.80299 7.01641 17266 ft 343 kts 231°
2026-05-05 17:40 46.78824 6.98968 17060 ft 331 kts 231°
2026-05-05 17:40 46.77410 6.96407 16702 ft 318 kts 231°
2026-05-05 17:40 46.76041 6.93930 15815 ft 311 kts 231°
2026-05-05 17:41 46.74685 6.91479 15010 ft 310 kts 230°
2026-05-05 17:41 46.73336 6.89041 14496 ft 309 kts 230°
2026-05-05 17:41 46.71993 6.86615 14114 ft 306 kts 230°
2026-05-05 17:41 46.70662 6.84218 13712 ft 302 kts 230°
2026-05-05 17:42 46.69343 6.81854 13004 ft 300 kts 230°
2026-05-05 17:42 46.68048 6.79540 12336 ft 297 kts 230°
2026-05-05 17:42 46.66752 6.77223 11674 ft 294 kts 230°
2026-05-05 17:42 46.65470 6.74932 11054 ft 290 kts 229°
2026-05-05 17:43 46.64164 6.72718 10432 ft 286 kts 227°
2026-05-05 17:43 46.62843 6.70568 9822 ft 283 kts 227°
2026-05-05 17:43 46.61563 6.68510 9593 ft 266 kts 227°
2026-05-05 17:43 46.60343 6.66556 9127 ft 260 kts 227°
2026-05-05 17:44 46.59132 6.64615 8634 ft 259 kts 227°
2026-05-05 17:44 46.57928 6.62675 8260 ft 258 kts 227°
2026-05-05 17:44 46.56733 6.60743 7943 ft 255 kts 227°
2026-05-05 17:44 46.55544 6.58822 7918 ft 257 kts 227°
2026-05-05 17:45 46.54350 6.56890 7917 ft 258 kts 227°
2026-05-05 17:45 46.53151 6.54948 7912 ft 258 kts 227°
2026-05-05 17:45 46.51959 6.53023 7670 ft 255 kts 227°
2026-05-05 17:45 46.50795 6.51145 7525 ft 244 kts 227°
2026-05-05 17:46 46.49683 6.49353 7401 ft 233 kts 227°
2026-05-05 17:46 46.48622 6.47639 7275 ft 223 kts 227°
2026-05-05 17:46 46.47944 6.46546 7170 ft 218 kts 227°
2026-05-05 17:46 46.46938 6.44925 6907 ft 215 kts 227°
2026-05-05 17:47 46.45895 6.43400 6676 ft 211 kts 223°
2026-05-05 17:47 46.44842 6.41942 6425 ft 207 kts 224°
2026-05-05 17:47 46.43830 6.40470 6145 ft 205 kts 225°
2026-05-05 17:47 46.42851 6.39021 6021 ft 196 kts 226°
2026-05-05 17:48 46.41922 6.37642 6005 ft 188 kts 225°
2026-05-05 17:48 46.41022 6.36307 5854 ft 180 kts 225°
2026-05-05 17:48 46.40190 6.35074 5654 ft 161 kts 225°
2026-05-05 17:48 46.39439 6.33961 5458 ft 154 kts 225°
2026-05-05 17:49 46.38669 6.32820 5233 ft 161 kts 225°
2026-05-05 17:49 46.37881 6.31654 5014 ft 164 kts 225°
2026-05-05 17:49 46.37083 6.30472 4794 ft 165 kts 225°
2026-05-05 17:49 46.36281 6.29287 4575 ft 164 kts 226°
2026-05-05 17:50 46.35485 6.28109 4353 ft 163 kts 226°
2026-05-05 17:50 46.34695 6.26941 4130 ft 157 kts 225°
2026-05-05 17:50 46.33968 6.25867 3925 ft 145 kts 226°
2026-05-05 17:50 46.33275 6.24844 3738 ft 140 kts 225°
2026-05-05 17:51 46.32594 6.23838 3544 ft 140 kts 225°
2026-05-05 17:51 46.31919 6.22842 3369 ft 139 kts 225°
2026-05-05 17:51 46.31243 6.21844 3189 ft 137 kts 224°
2026-05-05 17:51 46.30579 6.20865 3000 ft 137 kts 224°
2026-05-05 17:52 46.29902 6.19868 2803 ft 140 kts 226°
2026-05-05 17:52 46.29231 6.18879 2599 ft 138 kts 223°
2026-05-05 17:52 46.28547 6.17872 2403 ft 140 kts 225°
2026-05-05 17:52 46.27865 6.16867 2209 ft 141 kts 226°
2026-05-05 17:53 46.27180 6.15859 2027 ft 141 kts 225°
2026-05-05 17:53 46.26499 6.14858 1833 ft 138 kts 225°
2026-05-05 17:53 46.25834 6.13878 1644 ft 136 kts 224°
2026-05-05 17:53 46.25173 6.12899 1468 ft 135 kts 223°
2026-05-05 17:54 46.24555 6.11993 1370 ft 100 kts 224°
2026-05-05 17:54 46.24192 6.11467 1373 ft 42 kts 226°
2026-05-05 17:54 46.24003 6.11182 1380 ft 36 kts 224°
2026-05-05 17:54 46.23833 6.11077 1380 ft 12 kts 171°
2026-05-05 17:55 46.23829 6.11078 1380 ft 0 kts 170°
2026-05-05 17:55 46.23813 6.11081 1375 ft 5 kts 172°
2026-05-05 17:55 46.23806 6.11083 1376 ft 2 kts 172°
2026-05-05 17:55 46.23751 6.11091 1379 ft 10 kts 180°
2026-05-05 17:56 46.23741 6.11089 1379 ft 0 kts 186°
2026-05-05 17:57 46.23733 6.11088 1379 ft 3 kts 187°
2026-05-05 17:57 46.23688 6.11059 1375 ft 11 kts 217°
2026-05-05 17:57 46.23650 6.11008 1376 ft 7 kts 230°
2026-05-05 17:57 46.23625 6.10964 1376 ft 4 kts 230°
2026-05-05 17:58 46.23600 6.10924 1376 ft 9 kts 226°
2026-05-05 17:58 46.23537 6.10835 1379 ft 13 kts 225°
2026-05-05 17:58 46.23477 6.10747 1378 ft 12 kts 225°
2026-05-05 17:58 46.23429 6.10676 1380 ft 10 kts 224°
2026-05-05 17:59 46.23364 6.10592 1385 ft 15 kts 223°
2026-05-05 17:59 46.23288 6.10525 1387 ft 10 kts 158°
2026-05-05 17:59 46.23230 6.10600 1384 ft 15 kts 138°
2026-05-05 17:59 46.23189 6.10677 1386 ft 8 kts 109°
2026-05-05 18:00 46.23165 6.10727 1384 ft 4 kts 132°
2026-05-05 18:00 46.23159 6.10736 1386 ft 0 kts 132°
2026-05-05 18:00 46.23155 6.10743 1386 ft 0 kts 132°
2026-05-05 18:01 46.23153 6.10746 1386 ft 0 kts 132°